Regional Weather Roundup
Issued by NWS

Home | Current Version | Previous Version | Graphics & Text | Print | Product List | Glossary Off
Versions: 1 2 3 4 5 6 7 8 9 10 11 12 13 14 15 16 17 18 19 20 21 22 23 24 25 26 27 28 29 30 31 32 33 34 35 36 37 38 39 40 41 42 43 44 45 46 47 48

000
ASUS43 KDMX 290507
RWRIA

WEATHER ROUNDUP FOR IOWA
NATIONAL WEATHER SERVICE DES MOINES IA
1200 AM CDT FRI MAY 29 2015

NOTE: "FAIR" INDICATES FEW OR NO CLOUDS BELOW 12,000 FEET WITH NO
SIGNIFICANT WEATHER AND/OR OBSTRUCTIONS TO VISIBILITY.

* - THESE STATIONS ARE NOT NWS STATIONS...THUS NOT UNDER NWS
QUALITY CONTROL.  THEY ALSO DO NOT REPORT WEATHER SUCH
AS PRECIPITATION OR FOG.

IAZ001>003-012>014-020>022-031>034-043>046-290600-
   NORTHWEST IOWA

CITY           SKY/WX    TMP DP  RH WIND       PRES   REMARKS
CARROLL *      CLOUDY    66  64  94 S9        29.94F
CHEROKEE *     CLOUDY    64  64 100 S7        29.92S
DENISON *      MOCLDY    66  66 100 S10       29.92S
LE MARS *      CLEAR     68  64  88 S15       29.90F
ORANGE CITY *  PTCLDY    66  63  88 S9        29.90F
SHELDON *      PTCLDY    64  63  94 S12       29.90S
SIOUX CITY     MOCLDY    68  62  81 SE9       29.89F
SPENCER        CLOUDY    67  63  87 S10       29.92F
STORM LAKE *   PTCLDY    64  63  94 S8        29.94F
$$

IAZ055>058-069>071-079>083-090>094-290600-
   SOUTHWEST IOWA

CITY           SKY/WX    TMP DP  RH WIND       PRES   REMARKS
ATLANTIC *     CLEAR     66  64  94 S8        29.95S
AUDUBON *      PTCLDY    66  63  88 S7        29.96S
CLARINDA *     CLEAR     64  64 100 S7        29.97F
COUNCIL BLFS * CLEAR     66  66 100 S13       29.94F
CRESTON *      CLEAR     64  64 100 S8        29.97F
HARLAN  *      PTCLDY    66  66 100 S7        29.98S
LAMONI         MOCLDY    68  62  81 S9        29.99S
RED OAK *      CLEAR     66  64  94 S7        29.96S
SHENANDOAH *     N/A     66  64  94 S12       29.95F
$$

IAZ047>049-059>061-072>074-084-290600-
   CENTRAL IOWA

CITY           SKY/WX    TMP DP  RH WIND       PRES   REMARKS
AMES           PTCLDY    64  62  93 S8        29.96F
ANKENY *       CLEAR     64  64 100 S7        29.97R
CHARITON *       N/A     64  64 100 S9        29.99S
DES MOINES     MOCLDY    65  63  93 S6        29.96F
GRINNELL*      CLOUDY    64  63  94 S7        30.00R
KNOXVILLE *    CLOUDY    64  63  94 S6        29.97F
MARSHALLTOWN   MOCLDY    65  62  90 S8        29.97F
PELLA *        MOCLDY    64  64 100 S5        30.00S
PERRY *        CLOUDY    64  63  94 S7        29.96S
$$

IAZ004>006-015-016-023>025-035-036-290600-
   NORTH CENTRAL IOWA

CITY           SKY/WX    TMP DP  RH WIND       PRES   REMARKS
ALGONA *       MOCLDY    68  64  88 S12       29.94F
CLARION *      CLOUDY    68  61  77 S10       29.95F
ESTHERVILLE    CLOUDY    65  61  87 S9        29.92F
MASON CITY     CLOUDY    68  61  78 S8        29.96F
FOREST CITY *  MOCLDY    66  61  82 S8        29.95F
IOWA FALLS *     N/A     64  61  88 S8        29.97S
$$

IAZ007>011-017>019-026>030-037>042-050>054-066-290600-
   NORTHEAST IOWA

CITY           SKY/WX    TMP DP  RH WIND       PRES   REMARKS
CEDAR RAPIDS   CLOUDY    65  63  93 S7        29.99S
CHARLES CITY * CLOUDY    68  61  77 S10       29.97F
CLINTON *      PTCLDY    66  55  68 CALM      30.04S
DECORAH *      CLOUDY    68  54  60 S6        29.99S
DUBUQUE        MOCLDY    65  56  72 S5        30.02S
MONTICELLO *   CLOUDY    68  63  83 SE5       30.00S
OELWEIN *      MOCLDY    66  61  82 S7        30.01R
WATERLOO       CLOUDY    66  61  84 S8        29.97F
$$

IAZ064-065-067-068-078-290600-
   EAST CENTRAL IOWA

CITY           SKY/WX    TMP DP  RH WIND       PRES   REMARKS
DAVENPORT      MOCLDY    66  60  81 CALM      30.02F
IOWA CITY      CLOUDY    66  63  90 S5        30.01S
MT. PLEASANT * CLOUDY    64  63  94 S5        30.01S
MUSCATINE *    PTCLDY    66  63  88 CALM      30.01S
QUAD CITIES    MOCLDY    66  60  81 CALM      30.01F
$$

IAZ062-063-075>077-085>089-095>099-290600-
   SOUTHEAST IOWA

CITY           SKY/WX    TMP DP  RH WIND       PRES   REMARKS
BURLINGTON     CLOUDY    66  64  93 CALM      30.02R
FAIRFIELD *    CLOUDY    64  63  94 SE8       30.00F
FORT MADISON * MOCLDY    64  63  94 CALM      30.03S
KEOKUK *       MOCLDY    66  64  94 SE5       30.01F
OSKALOOSA *    LGT RAIN  64  63  94 CALM      30.00R
CENTERVILLE *  CLEAR     64  64 100 SE10      30.00S
OTTUMWA        CLOUDY    65  63  93 S10       29.98F
WASHINGTON *   CLEAR     64  63  94 S5        30.02S
$$

ABBREVIATIONS USED IN REMARKS
   TC - TEMPERATURES IN CELSIUS
  WCI - WIND CHILL INDEX
   HX - HEAT INDEX
  VSB - VISIBILITY
$$




USA.gov is the U.S. government's official web portal to all federal, state and local government web resources and services.